#timestamp,LO_Frequency,Hit,StdDev 
1678543215.5,286046996.1,N
1678543235.3,286046997.8,N
1678543255.2,286046996.8,N
1678543275.9,286046996.8,N
1678543295.7,286046998.7,N
1678543315.6,286047001.1,N
1678543335.4,286046997.1,N
1678543355.2,286046997.4,N
1678543375.1,286046995.0,N
1678543376.0,286046995.0,N
1678543395.8,286046999.4,N
1678543415.7,286046996.5,N
1678543435.5,286047000.5,N
1678543455.3,286047002.7,N
1678543475.2,286047004.3,N
1678543495.0,286047005.5,N
1678543495.9,286047005.5,N
1678543515.8,286047003.1,N
1678543535.6,286047005.8,N
1678543555.4,286047003.0,N
1678543575.3,286047007.2,N
1678543595.1,286047005.2,N
1678543615.9,286047003.8,N
1678543635.7,286047003.7,N
1678543655.5,286047004.1,N
1678543675.4,286047002.2,N
1678543695.2,286047000.3,N
1678543715.0,286047002.2,N
1678543716.0,286047002.2,N
1678543735.8,286047000.6,N
1678543755.6,286047000.1,N
1678543775.5,286046999.8,N
1678543795.3,286047001.9,N
1678543815.1,286047001.9,N
1678543835.9,286047002.1,N
1678543855.7,286047002.5,N
1678543875.6,286047002.0,N
1678543895.4,286047002.0,N
1678543915.2,286047004.3,N
1678543935.1,286047005.6,N
1678543936.0,286047005.6,N
1678543955.8,286047004.1,N
1678543975.7,286047004.0,N
1678543995.5,286047003.5,N
1678544015.3,286047003.7,N
1678544035.2,286047005.7,Y
1678544055.0,286047000.1,P
1678544055.9,286047000.1,N
1678544075.8,286047000.1,N
1678544095.6,286047002.6,N
1678544115.4,286047001.5,N
1678544135.3,286047002.4,N
1678544155.1,286047002.5,N
1678544175.9,286047001.9,N
1678544195.7,286047001.4,N
1678544215.5,286047003.9,Y
1678544235.4,286047001.8,P
1678544255.2,286046999.7,P
1678544275.0,286046999.7,N
1678544276.0,286046999.7,N
1678544295.8,286047000.5,N
1678544315.6,286047000.7,N
1678544335.5,286046998.7,N
1678544355.3,286046997.2,N
1678544375.1,286046997.7,N
1678544395.9,286046999.3,N
1678544415.7,286046996.9,N
1678544435.6,286046997.5,N
1678544455.4,286046999.3,N
1678544475.2,286047000.0,N
1678544495.1,286047000.9,N
1678544496.0,286047000.9,N
1678544515.8,286046999.4,N
1678544535.6,286046999.4,N
1678544555.5,286046997.1,N
1678544575.3,286046996.7,N
1678544595.2,286046996.8,N
1678544615.9,286046994.9,Y
1678544635.7,286046997.1,P
1678544655.6,286046997.1,N
1678544675.4,286046999.6,N
1678544695.2,286046999.5,N
1678544715.1,286046999.1,N
1678544716.0,286046999.1,N
1678544735.8,286046999.3,N
1678544755.7,286046996.5,Y
1678544775.5,286046998.1,P
1678544795.3,286047002.4,P
1678544815.2,286047002.2,N
1678544835.0,286046999.9,N
1678544835.9,286046999.9,N
1678544855.7,286046998.2,N
1678544875.6,286046999.1,N
1678544895.4,286047000.8,N
1678544915.3,286046998.1,N
1678544935.1,286047002.6,N
1678544936.0,286047002.6,N
1678544955.8,286047001.9,N
1678544975.7,286047002.4,N
1678544995.5,286047004.4,N
1678545015.3,286047001.3,N
1678545035.2,286047002.4,N
1678545055.0,286047002.5,N
1678545055.9,286047002.5,N
1678545075.8,286047002.4,N
1678545095.6,286047002.5,N
1678545115.4,286047001.5,N
1678545135.3,286047001.4,N
1678545155.1,286047002.6,N
1678545175.8,286047001.4,N
1678545195.7,286047002.6,N
1678545215.5,286047000.2,N
1678545235.4,286047000.6,N
1678545255.2,286046998.5,N
1678545275.0,286047000.4,N
1678545275.9,286047000.4,N
1678545295.8,286047002.1,N
1678545315.6,286046999.8,N
1678545335.4,286047000.1,N
1678545355.3,286047000.6,N
1678545375.1,286047000.6,N
1678545395.9,286047000.5,N
1678545415.7,286047001.2,N
1678545435.5,286046998.2,N
1678545455.4,286046998.7,N
1678545475.2,286046998.3,N
1678545495.0,286046998.7,N
1678545496.0,286046998.7,N
1678545515.8,286046999.4,N
1678545535.6,286046998.5,N
1678545555.5,286047000.3,N
1678545575.3,286046999.8,N
1678545595.1,286047002.3,N
1678545615.9,286047000.2,N
1678545635.7,286046998.2,N
1678545655.5,286047000.1,N
1678545675.4,286047001.0,N
1678545695.2,286047001.0,N
1678545715.1,286047000.8,N
1678545716.0,286047000.8,N
1678545735.8,286047000.6,N
1678545755.7,286047000.4,N
1678545775.5,286046998.8,N
1678545795.3,286046998.6,N
1678545815.2,286047001.0,N
1678545835.0,286047001.2,N
1678545835.9,286047001.2,N
1678545855.8,286046998.7,N
1678545875.6,286047000.9,N
1678545895.4,286047000.6,N
1678545915.3,286047000.4,N
1678545935.1,286047000.9,N
1678545955.8,286047001.1,N
1678545975.7,286046998.1,N
1678545995.5,286046998.2,N
1678546015.4,286046998.7,N
1678546035.2,286046999.6,N
1678546055.0,286046999.5,N
1678546055.9,286046999.5,N
1678546075.8,286046999.5,N
1678546095.6,286046998.7,N
1678546115.4,286046999.1,N
1678546135.3,286046998.9,N
1678546155.1,286046998.5,N
1678546175.9,286047002.4,N
1678546195.7,286046999.8,N
1678546215.5,286047002.7,N
1678546235.4,286047002.5,N
1678546255.2,286047002.0,N
1678546275.0,286047001.6,N
1678546275.9,286047001.6,N
1678546295.8,286047002.2,N
1678546315.6,286046999.9,N
1678546335.5,286047002.2,N
1678546355.3,286047000.3,N
1678546375.1,286047001.0,N
1678546395.9,286046998.5,N
1678546415.7,286047001.1,N
1678546435.5,286047001.0,N
1678546455.4,286047000.4,N
1678546475.2,286047000.5,N
1678546495.1,286047000.5,N
1678546496.0,286047000.5,N
1678546515.8,286047000.5,N
1678546535.6,286047000.3,N
1678546555.5,286047000.6,N
1678546575.3,286047002.8,N
1678546595.1,286046998.6,N
1678546615.9,286046998.2,N
1678546635.7,286047000.5,N
1678546655.6,286047001.8,N
1678546675.4,286047002.6,N
1678546695.2,286046998.3,N
1678546715.1,286046998.7,N
1678546716.0,286046998.7,N
1678546735.8,286046998.2,N
1678546755.6,286046999.4,N
1678546775.5,286046996.6,N
1678546795.3,286046995.3,Y
